Time;Channel 1: Channel 1
24.04.2024 04:08:39;6.2
24.04.2024 03:38:39;6.8
24.04.2024 03:08:39;6.7
24.04.2024 02:38:39;6.8
24.04.2024 02:08:39;6.9
24.04.2024 01:38:39;6.9
24.04.2024 01:08:39;7.0
24.04.2024 00:38:39;7.1
24.04.2024 00:08:39;7.1
23.04.2024 23:38:39;7.2
23.04.2024 23:08:39;7.5
23.04.2024 22:38:39;7.4
23.04.2024 22:08:39;7.0
23.04.2024 21:38:39;7.9
23.04.2024 21:08:39;8.1
23.04.2024 20:38:39;8.2
23.04.2024 20:08:39;8.1
23.04.2024 19:38:39;8.3
23.04.2024 19:08:39;8.4
23.04.2024 18:38:39;8.9
23.04.2024 18:08:39;8.3
23.04.2024 17:38:39;9.1
23.04.2024 17:08:39;8.4
23.04.2024 16:38:39;8.3
23.04.2024 16:08:39;8.7
23.04.2024 15:38:39;8.9
23.04.2024 15:08:39;8.8
23.04.2024 14:38:39;8.1
23.04.2024 14:08:39;9.2
23.04.2024 13:38:39;9.4
23.04.2024 13:08:39;7.9
23.04.2024 12:38:39;8.9
23.04.2024 12:08:39;8.7
23.04.2024 11:38:39;9.1
23.04.2024 11:08:39;8.6
23.04.2024 10:38:39;6.9
23.04.2024 10:08:39;6.2
23.04.2024 09:38:39;7.6
23.04.2024 09:08:39;5.8
23.04.2024 08:38:39;4.8
23.04.2024 08:08:39;5.9
23.04.2024 07:38:39;4.1
23.04.2024 07:08:39;3.8
23.04.2024 06:38:39;3.6
23.04.2024 06:08:39;3.7
23.04.2024 05:38:39;2.9
23.04.2024 05:08:39;2.7
23.04.2024 04:38:39;3.6
23.04.2024 04:08:39;3.4
23.04.2024 03:38:39;3.6
23.04.2024 03:08:39;3.6
23.04.2024 02:38:39;2.5
23.04.2024 02:08:39;2.6
23.04.2024 01:38:39;3.3
23.04.2024 01:08:39;2.5
23.04.2024 00:38:39;3.3
23.04.2024 00:08:39;2.6
22.04.2024 23:38:39;3.4
22.04.2024 23:08:39;4.1
22.04.2024 22:38:39;4.6
22.04.2024 22:08:39;5.5
22.04.2024 21:38:39;5.9
22.04.2024 21:08:39;6.3
22.04.2024 20:38:39;6.7
22.04.2024 20:08:39;7.5
22.04.2024 19:38:39;7.4
22.04.2024 19:08:39;8.0
22.04.2024 18:38:39;9.2
22.04.2024 18:08:39;9.6
22.04.2024 17:38:39;11.2
22.04.2024 17:08:39;9.0
22.04.2024 16:38:39;9.8
22.04.2024 16:08:39;9.7
22.04.2024 15:38:39;10.7
22.04.2024 15:08:39;9.3
22.04.2024 14:38:39;9.4
22.04.2024 14:08:39;12.6
22.04.2024 13:38:39;9.7
22.04.2024 13:08:39;9.9
22.04.2024 12:38:39;9.5
22.04.2024 12:08:39;9.7
22.04.2024 11:38:39;10.1
22.04.2024 11:08:39;8.6
22.04.2024 10:38:39;7.0
22.04.2024 10:08:39;8.3
22.04.2024 09:38:39;6.9
22.04.2024 09:08:39;5.4
22.04.2024 08:38:39;4.9
22.04.2024 08:08:39;4.9
22.04.2024 07:38:39;4.2
22.04.2024 07:08:39;3.8
22.04.2024 06:38:39;4.6
22.04.2024 06:08:39;3.6
22.04.2024 05:38:39;3.1
22.04.2024 05:08:39;3.1
22.04.2024 04:38:39;2.7
22.04.2024 04:08:39;2.6
22.04.2024 03:38:39;2.5
22.04.2024 03:08:39;2.4
22.04.2024 02:38:39;3.1
22.04.2024 02:08:39;3.3
22.04.2024 01:38:39;3.5
22.04.2024 01:08:39;3.9
22.04.2024 00:38:39;4.0
22.04.2024 00:08:39;4.1
21.04.2024 23:38:39;3.8
21.04.2024 23:08:39;4.3
21.04.2024 22:38:39;4.3
21.04.2024 22:08:39;5.4
21.04.2024 21:38:39;4.9
21.04.2024 21:08:39;4.6
21.04.2024 20:38:39;4.9
21.04.2024 20:08:39;5.5
21.04.2024 19:38:39;5.8
21.04.2024 19:08:39;7.6
21.04.2024 18:38:39;7.1
21.04.2024 18:08:39;7.4
21.04.2024 17:38:39;7.9
21.04.2024 17:08:39;7.9
21.04.2024 16:38:39;7.9
21.04.2024 16:08:39;7.4
21.04.2024 15:38:39;8.4
21.04.2024 15:08:39;8.9
21.04.2024 14:38:39;8.8
21.04.2024 14:08:39;7.8
21.04.2024 13:38:39;7.6
21.04.2024 13:08:39;8.9
21.04.2024 12:38:39;8.3
21.04.2024 12:08:39;7.6
21.04.2024 11:38:39;7.6
21.04.2024 11:08:39;7.8
21.04.2024 10:38:39;6.9
21.04.2024 10:08:39;7.2
21.04.2024 09:38:39;5.4
21.04.2024 09:08:39;5.3
21.04.2024 08:38:39;5.4
21.04.2024 08:08:39;5.2
21.04.2024 07:38:39;5.3
21.04.2024 07:08:39;3.8
21.04.2024 06:38:39;2.4
21.04.2024 06:08:39;1.6
21.04.2024 05:38:39;1.1
21.04.2024 05:08:39;1.5
21.04.2024 04:38:39;2.0
21.04.2024 04:08:39;1.9
21.04.2024 03:38:39;1.9
21.04.2024 03:08:39;2.1
21.04.2024 02:38:39;1.9
21.04.2024 02:08:39;2.8
21.04.2024 01:38:39;2.1
21.04.2024 01:08:39;2.9
21.04.2024 00:38:39;3.6
21.04.2024 00:08:39;4.3
20.04.2024 23:38:39;3.6
20.04.2024 23:08:39;4.2
20.04.2024 22:38:39;4.7
20.04.2024 22:08:39;4.6
20.04.2024 21:38:39;4.8
20.04.2024 21:08:39;4.5
20.04.2024 20:38:39;4.4
20.04.2024 20:08:39;4.2
20.04.2024 19:38:39;4.8
20.04.2024 19:08:39;5.3
20.04.2024 18:38:39;5.5
20.04.2024 18:08:39;5.8
20.04.2024 17:38:39;5.9
20.04.2024 17:08:39;6.0
20.04.2024 16:38:39;6.9
20.04.2024 16:08:39;7.4
20.04.2024 15:38:39;7.7
20.04.2024 15:08:39;8.1
20.04.2024 14:38:39;6.9
20.04.2024 14:08:39;6.9
20.04.2024 13:38:39;7.6
20.04.2024 13:08:39;8.8
20.04.2024 12:38:39;8.8
20.04.2024 12:08:39;8.3
20.04.2024 11:38:39;9.7
20.04.2024 11:08:39;8.2
20.04.2024 10:38:39;7.4
20.04.2024 10:08:39;7.7
20.04.2024 09:38:39;6.9
20.04.2024 09:08:39;6.4
20.04.2024 08:38:39;6.0
20.04.2024 08:08:39;6.1
20.04.2024 07:38:39;6.9
20.04.2024 07:08:39;5.9
20.04.2024 06:38:39;5.6
20.04.2024 06:08:39;5.3
20.04.2024 05:38:39;5.0
20.04.2024 05:08:39;5.3
20.04.2024 04:38:39;4.8
20.04.2024 04:08:39;4.9
20.04.2024 03:38:39;5.1
20.04.2024 03:08:39;4.9
20.04.2024 02:38:39;4.9
20.04.2024 02:08:39;5.4
20.04.2024 01:38:39;5.5
20.04.2024 01:08:39;5.9
20.04.2024 00:38:39;6.0
20.04.2024 00:08:39;6.3
19.04.2024 23:38:39;7.3
19.04.2024 23:08:39;6.6
19.04.2024 22:38:39;6.3
19.04.2024 22:08:39;6.7
19.04.2024 21:38:39;6.4
19.04.2024 21:08:39;6.6
19.04.2024 20:38:39;6.8
19.04.2024 20:08:39;7.1
19.04.2024 19:38:39;7.1
19.04.2024 19:08:39;8.7
19.04.2024 18:38:39;10.0
19.04.2024 18:08:39;11.1
19.04.2024 17:38:39;12.1
19.04.2024 17:08:39;10.6
19.04.2024 16:38:39;10.8
19.04.2024 16:08:39;12.3
19.04.2024 15:38:39;12.3
19.04.2024 15:08:39;10.9
19.04.2024 14:38:39;9.7
19.04.2024 14:08:39;10.9
19.04.2024 13:38:39;10.6
19.04.2024 13:08:39;11.4
19.04.2024 12:38:39;10.4
19.04.2024 12:08:39;10.2
19.04.2024 11:38:39;9.8
19.04.2024 11:08:39;9.4
19.04.2024 10:38:39;8.4
19.04.2024 10:08:39;8.7
19.04.2024 09:38:39;6.1
19.04.2024 09:08:39;7.8
19.04.2024 08:38:39;5.3
19.04.2024 08:08:39;4.8
19.04.2024 07:38:39;3.5
19.04.2024 07:08:39;2.4
19.04.2024 06:38:39;0.9
19.04.2024 06:08:39;0.3
19.04.2024 05:38:39;1.0
19.04.2024 05:08:39;0.9
19.04.2024 04:38:39;0.4
19.04.2024 04:08:39;1.3
19.04.2024 03:38:39;2.1
19.04.2024 03:08:39;2.1
19.04.2024 02:38:39;2.4
19.04.2024 02:08:39;2.6
19.04.2024 01:38:39;2.8
19.04.2024 01:08:39;2.9
19.04.2024 00:38:39;3.2
19.04.2024 00:08:39;3.9
18.04.2024 23:38:39;3.9
18.04.2024 23:08:39;4.0
18.04.2024 22:38:39;4.4
18.04.2024 22:08:39;4.8
18.04.2024 21:38:39;5.0
18.04.2024 21:08:39;5.9
18.04.2024 20:38:39;6.4
18.04.2024 20:08:39;6.8
18.04.2024 19:38:39;7.6
18.04.2024 19:08:39;8.0
18.04.2024 18:38:39;8.8
18.04.2024 18:08:39;9.0
18.04.2024 17:38:39;9.8
18.04.2024 17:08:39;10.1
18.04.2024 16:38:39;10.4
18.04.2024 16:08:39;11.3
18.04.2024 15:38:39;10.8
18.04.2024 15:08:39;11.4
18.04.2024 14:38:39;9.8
18.04.2024 14:08:39;10.9
18.04.2024 13:38:39;10.8
18.04.2024 13:08:39;12.1
18.04.2024 12:38:39;9.6
18.04.2024 12:08:39;11.1
18.04.2024 11:38:39;9.5
18.04.2024 11:08:39;9.8
18.04.2024 10:38:39;9.2
18.04.2024 10:08:39;9.3
18.04.2024 09:38:39;8.2
18.04.2024 09:08:39;8.6
18.04.2024 08:38:39;7.1
18.04.2024 08:08:39;5.7
18.04.2024 07:38:39;2.8
18.04.2024 07:08:39;0.7
18.04.2024 06:38:39;0.4
18.04.2024 06:08:39;0.1
18.04.2024 05:38:39;-0.3
18.04.2024 05:08:39;0.4
18.04.2024 04:38:39;0.3
18.04.2024 04:08:39;0.4
18.04.2024 03:38:39;0.8
18.04.2024 03:08:39;0.5
18.04.2024 02:38:39;1.6
18.04.2024 02:08:39;1.5
18.04.2024 01:38:39;2.1
18.04.2024 01:08:39;2.2
18.04.2024 00:38:39;1.6
18.04.2024 00:08:39;2.8
17.04.2024 23:38:39;3.9
17.04.2024 23:08:39;3.3
17.04.2024 22:38:39;4.2
17.04.2024 22:08:39;5.3
17.04.2024 21:38:39;6.0
17.04.2024 21:08:39;6.8
17.04.2024 20:38:39;7.3
17.04.2024 20:08:39;8.0
17.04.2024 19:38:39;8.7
17.04.2024 19:08:39;9.5
17.04.2024 18:38:39;10.3
17.04.2024 18:08:39;10.9
17.04.2024 17:38:39;11.4
17.04.2024 17:08:39;10.0
17.04.2024 16:38:39;10.8
17.04.2024 16:08:39;11.6
17.04.2024 15:38:39;12.2
17.04.2024 15:08:39;12.9
17.04.2024 14:38:39;12.3
17.04.2024 14:08:39;9.4
17.04.2024 13:38:39;10.2
17.04.2024 13:08:39;9.9
17.04.2024 12:38:39;9.7
17.04.2024 12:08:39;8.4
17.04.2024 11:38:39;9.1
17.04.2024 11:08:39;11.2
17.04.2024 10:38:39;8.1
17.04.2024 10:08:39;7.8
17.04.2024 09:38:39;7.3
17.04.2024 09:08:39;7.9
17.04.2024 08:38:39;7.7
17.04.2024 08:08:39;6.7
17.04.2024 07:38:39;6.0
17.04.2024 07:08:39;6.1
17.04.2024 06:38:39;7.4
17.04.2024 06:08:39;5.9
17.04.2024 05:38:39;5.8
17.04.2024 05:08:39;5.9
17.04.2024 04:38:39;5.9
17.04.2024 04:08:39;6.2
17.04.2024 03:38:39;5.9
17.04.2024 03:08:39;6.1
17.04.2024 02:38:39;6.6
17.04.2024 02:08:39;6.9
17.04.2024 01:38:39;6.7
17.04.2024 01:08:39;6.5
17.04.2024 00:38:39;6.7
17.04.2024 00:08:39;7.3
16.04.2024 23:38:39;7.7
16.04.2024 23:08:39;7.9
16.04.2024 22:38:39;8.1
16.04.2024 22:08:39;8.0
16.04.2024 21:38:39;7.9
16.04.2024 21:08:39;8.7
16.04.2024 20:38:39;8.4
16.04.2024 20:08:39;8.4
16.04.2024 19:38:39;8.4
16.04.2024 19:08:39;10.6
16.04.2024 18:38:39;10.6
16.04.2024 18:08:39;9.9
16.04.2024 17:38:39;11.0
16.04.2024 17:08:39;11.4
16.04.2024 16:38:39;10.7
16.04.2024 16:08:39;10.6
16.04.2024 15:38:39;11.1
16.04.2024 15:08:39;10.8
16.04.2024 14:38:39;9.9
16.04.2024 14:08:39;10.1
16.04.2024 13:38:39;9.8
16.04.2024 13:08:39;12.2
16.04.2024 12:38:39;12.5
16.04.2024 12:08:39;10.2
16.04.2024 11:38:39;9.4
16.04.2024 11:08:39;8.5
16.04.2024 10:38:39;8.0
16.04.2024 10:08:39;8.6
16.04.2024 09:38:39;8.1
16.04.2024 09:08:39;7.8
16.04.2024 08:38:39;8.6
16.04.2024 08:08:39;7.6
16.04.2024 07:38:39;7.4
16.04.2024 07:08:39;7.7
16.04.2024 06:38:39;9.6
16.04.2024 06:08:39;7.3
16.04.2024 05:38:39;8.0
16.04.2024 05:08:39;8.1
16.04.2024 04:38:39;8.4
16.04.2024 04:08:39;9.2
16.04.2024 03:38:39;9.8
16.04.2024 03:08:39;10.3
16.04.2024 02:38:39;11.0
16.04.2024 02:08:39;12.3
16.04.2024 01:38:39;12.4
16.04.2024 01:08:39;12.4
16.04.2024 00:38:39;12.7
16.04.2024 00:08:39;12.8
15.04.2024 23:38:39;13.2
15.04.2024 23:08:39;13.5
15.04.2024 22:38:39;13.2
15.04.2024 22:08:39;14.2
15.04.2024 21:38:39;14.3
15.04.2024 21:08:39;14.7
15.04.2024 20:38:39;14.9
15.04.2024 20:08:39;15.4
15.04.2024 19:38:39;15.9
15.04.2024 19:08:39;15.9
15.04.2024 18:38:39;16.1
15.04.2024 18:08:39;16.2
15.04.2024 17:38:39;15.4
15.04.2024 17:08:39;15.9
15.04.2024 16:38:39;16.4
15.04.2024 16:08:39;16.3
15.04.2024 15:38:39;17.1
15.04.2024 15:08:39;16.4
15.04.2024 14:38:39;15.5
15.04.2024 14:08:39;16.7
15.04.2024 13:38:39;17.1
15.04.2024 13:08:39;16.7
15.04.2024 12:38:39;17.3
15.04.2024 12:08:39;17.6
15.04.2024 11:38:39;16.8
15.04.2024 11:08:39;17.1
15.04.2024 10:38:39;16.1
15.04.2024 10:08:39;15.3
15.04.2024 09:38:39;15.1
15.04.2024 09:08:39;14.3
15.04.2024 08:38:39;14.9
15.04.2024 08:08:39;14.1
15.04.2024 07:38:39;12.6
15.04.2024 07:08:39;11.6
15.04.2024 06:38:39;10.7
15.04.2024 06:08:39;11.5
15.04.2024 05:38:39;10.9
15.04.2024 05:08:39;11.9
15.04.2024 04:38:39;11.8
15.04.2024 04:08:39;11.5
15.04.2024 03:38:39;11.6
15.04.2024 03:08:39;11.8
15.04.2024 02:38:39;12.6
15.04.2024 02:08:39;12.8
15.04.2024 01:38:39;12.7
15.04.2024 01:08:39;13.1
15.04.2024 00:38:39;13.8
15.04.2024 00:08:39;14.1
14.04.2024 23:38:39;14.6
14.04.2024 23:08:39;15.2
14.04.2024 22:38:39;15.7
14.04.2024 22:08:39;16.3
14.04.2024 21:38:39;16.7
14.04.2024 21:08:39;17.6
14.04.2024 20:38:39;18.4
14.04.2024 20:08:39;19.3
14.04.2024 19:38:39;20.6
14.04.2024 19:08:39;21.3
14.04.2024 18:38:39;21.9
14.04.2024 18:08:39;22.4
14.04.2024 17:38:39;22.7
14.04.2024 17:08:39;22.6
14.04.2024 16:38:39;23.1
14.04.2024 16:08:39;23.4
14.04.2024 15:38:39;23.4
14.04.2024 15:08:39;23.4
14.04.2024 14:38:39;22.8
14.04.2024 14:08:39;22.5
14.04.2024 13:38:39;22.8
14.04.2024 13:08:39;22.0
14.04.2024 12:38:39;21.8
14.04.2024 12:08:39;21.2
14.04.2024 11:38:39;20.9
14.04.2024 11:08:39;19.9
14.04.2024 10:38:39;19.6
14.04.2024 10:08:39;18.6
14.04.2024 09:38:39;16.0
14.04.2024 09:08:39;13.6
14.04.2024 08:38:39;12.9
14.04.2024 08:08:39;10.1
14.04.2024 07:38:39;8.8
14.04.2024 07:08:39;7.6
14.04.2024 06:38:39;7.5
14.04.2024 06:08:39;7.3
14.04.2024 05:38:39;8.4
14.04.2024 05:08:39;8.6
14.04.2024 04:38:39;8.7
14.04.2024 04:08:39;8.9
14.04.2024 03:38:39;9.2
14.04.2024 03:08:39;10.1
14.04.2024 02:38:39;10.1
14.04.2024 02:08:39;10.2
14.04.2024 01:38:39;11.1
14.04.2024 01:08:39;12.1
14.04.2024 00:38:39;12.8
14.04.2024 00:08:39;13.1
13.04.2024 23:38:39;13.6
13.04.2024 23:08:39;14.3
13.04.2024 22:38:39;15.1
13.04.2024 22:08:39;15.3
13.04.2024 21:38:39;16.1
13.04.2024 21:08:39;16.3
13.04.2024 20:38:39;17.0
13.04.2024 20:08:39;17.8
13.04.2024 19:38:39;18.9
13.04.2024 19:08:39;20.3
13.04.2024 18:38:39;21.1
13.04.2024 18:08:39;21.4
13.04.2024 17:38:39;21.8
13.04.2024 17:08:39;21.9
13.04.2024 16:38:39;22.5
13.04.2024 16:08:39;22.1
13.04.2024 15:38:39;21.8
13.04.2024 15:08:39;21.8
13.04.2024 14:38:39;21.5
13.04.2024 14:08:39;21.2
13.04.2024 13:38:39;20.3
13.04.2024 13:08:39;19.6
13.04.2024 12:38:39;19.4
13.04.2024 12:08:39;19.1
13.04.2024 11:38:39;18.2
13.04.2024 11:08:39;17.9
13.04.2024 10:38:39;16.9
13.04.2024 10:08:39;15.8
13.04.2024 09:38:39;15.6
13.04.2024 09:08:39;13.9
13.04.2024 08:38:39;12.3
13.04.2024 08:08:39;9.9
13.04.2024 07:38:39;7.1
13.04.2024 07:08:39;6.5
13.04.2024 06:38:39;6.6
13.04.2024 06:08:39;6.9
13.04.2024 05:38:39;6.8
13.04.2024 05:08:39;6.9
13.04.2024 04:38:39;7.3
13.04.2024 04:08:39;7.5
13.04.2024 03:38:39;7.6
13.04.2024 03:08:39;8.6
13.04.2024 02:38:39;8.1
13.04.2024 02:08:39;8.6
13.04.2024 01:38:39;8.8
13.04.2024 01:08:39;9.3
13.04.2024 00:38:39;10.0
13.04.2024 00:08:39;10.3
12.04.2024 23:38:39;11.5
12.04.2024 23:08:39;11.7
12.04.2024 22:38:39;12.8
12.04.2024 22:08:39;13.5
12.04.2024 21:38:39;14.3
12.04.2024 21:08:39;14.9
12.04.2024 20:38:39;15.8
12.04.2024 20:08:39;16.9
12.04.2024 19:38:39;18.7
12.04.2024 19:08:39;19.9
12.04.2024 18:38:39;20.6
12.04.2024 18:08:39;21.0
12.04.2024 17:38:39;21.0
12.04.2024 17:08:39;21.5
12.04.2024 16:38:39;21.0
12.04.2024 16:08:39;20.9
12.04.2024 15:38:39;20.6
12.04.2024 15:08:39;20.3
12.04.2024 14:38:39;20.4
12.04.2024 14:08:39;20.1
12.04.2024 13:38:39;20.8
12.04.2024 13:08:39;19.5
12.04.2024 12:38:39;18.8
12.04.2024 12:08:39;error 1
12.04.2024 11:38:39;error 1
12.04.2024 11:08:39;error 1
12.04.2024 10:38:39;error 1
12.04.2024 10:08:39;error 1
12.04.2024 09:38:39;error 1
12.04.2024 09:08:39;error 1
12.04.2024 08:38:39;error 1
12.04.2024 08:08:39;error 1
12.04.2024 07:38:39;error 1
12.04.2024 07:08:39;error 1
12.04.2024 06:38:39;error 1
12.04.2024 06:08:39;error 1
12.04.2024 05:38:39;error 1
12.04.2024 05:08:39;error 1
12.04.2024 04:38:39;error 1
12.04.2024 04:08:39;error 1
12.04.2024 03:38:39;error 1
12.04.2024 03:08:39;error 1
12.04.2024 02:38:39;error 1
12.04.2024 02:08:39;error 1
12.04.2024 01:38:39;error 1
12.04.2024 01:08:39;error 1
12.04.2024 00:38:39;error 1
12.04.2024 00:08:39;error 1
11.04.2024 23:38:39;error 1
11.04.2024 23:08:39;error 1
11.04.2024 22:38:39;error 1
11.04.2024 22:08:39;error 1
11.04.2024 21:38:39;error 1
11.04.2024 21:08:39;error 1
11.04.2024 20:38:39;error 1
11.04.2024 20:08:39;error 1
11.04.2024 19:38:39;error 1
11.04.2024 19:08:39;error 1
11.04.2024 18:38:39;error 1
11.04.2024 18:08:39;error 1
11.04.2024 17:38:39;error 1
11.04.2024 17:08:39;error 1
11.04.2024 16:38:39;error 1
